Hastings Natural History Reservation, California Weather observations

Data are for 10 minute period ending at time listed.
 Day   Time   Solar   Ave.   Ave.  Ave.  Vector  Max.   Baro.   Total    
  of    of     Rad.   Air    Rel.  Wind   Wind   Wind  Press.  Precip.   
Year   Day            Temp.  Hum.  Speed  Dir.   Gust                    
2014   (PST)  Kw/m2    F      %     mph   deg.    mph    mb.     in.     
-------------------------------------------------------------------------
 209    1:00   0.00   63.8    38    0.5    56     1.5   953.3    0.00 
 209    1:10   0.00   63.8    37    0.3   205     1.3   953.1    0.00 
 209    1:20   0.00   63.6    36    0.3    54     0.9   953.0    0.00 
 209    1:30   0.00   63.3    36    0.3    50     1.4   953.0    0.00 
 209    1:40   0.00   63.2    34    0.2    58     0.9   953.0    0.00 
 209    1:50   0.00   62.9    34    0.4    50     1.5   952.9    0.00 
 209    2:00   0.00   62.8    33    0.3    46     2.1   952.9    0.00 
 209    2:10   0.00   62.9    32    0.5    69     2.1   952.9    0.00 
 209    2:20   0.00   62.8    32    0.2    53     1.3   952.9    0.00 
 209    2:30   0.00   62.8    31    0.5    60     2.3   952.8    0.00 
 209    2:40   0.00   62.9    30    0.4    58     1.6   952.8    0.00 
 209    2:50   0.00   62.9    30    0.2    58     0.8   952.8    0.00 
 209    3:00   0.00   63.0    28    0.4    74     1.2   952.7    0.00 
 209    3:10   0.00   63.0    29    0.0    31     0.8   952.7    0.00 
 209    3:20   0.00   62.9    29    0.0     0     0.0   952.7    0.00 
 209    3:30   0.00   62.8    28    1.2    53     2.8   952.7    0.00 
 209    3:40   0.00   63.1    28    0.2    46     1.2   952.7    0.00 
 209    3:50   0.00   63.1    29    0.7    57     2.6   952.8    0.00 
 209    4:00   0.00   63.1    28    0.5    75     2.9   952.8    0.00 
 209    4:10   0.00   63.0    28    0.6    59     1.2   952.9    0.00 
 209    4:20   0.00   63.0    29    0.1    53     0.7   952.9    0.00 
 209    4:30   0.00   62.9    29    1.0    56     1.9   952.9    0.00 
 209    4:40   0.00   63.2    30    0.2    68     1.7   953.0    0.00 
 209    4:50   0.00   63.3    30    0.5    60     2.0   953.0    0.00 
 209    5:00   0.00   63.7    30    0.0    55     0.7   953.0    0.00 
 209    5:10   0.00   64.1    29    0.6    57     1.6   953.0    0.00 
 209    5:20   0.00   64.5    29    1.0    55     2.0   953.0    0.00 
 209    5:30   0.00   65.0    29    0.5    55     1.6   953.0    0.00 
 209    5:40   0.00   65.2    28    1.3    50     1.9   953.1    0.00 
 209    5:50   0.00   65.2    29    0.7    49     1.8   953.1    0.00 
 209    6:00   0.00   65.0    29    0.0    44     0.4   953.1    0.00 
 209    6:10   0.00   64.7    29    1.0    70     1.5   953.2    0.00 
 209    6:20   0.00   64.7    30    1.1    50     2.1   953.3    0.00 
 209    6:30   0.00   64.8    30    0.1    47     1.1   953.3    0.00 
 209    6:40   0.01   64.9    29    0.9    56     1.8   953.3    0.00 
 209    6:50   0.01   65.2    28    0.6    55     1.3   953.3    0.00 
 209    7:00   0.03   65.5    29    0.2    49     1.2   953.4    0.00 
 209    7:10   0.03   65.7    28    1.2    50     1.5   953.5    0.00 
 209    7:20   0.04   66.3    29    0.5    53     1.3   953.6    0.00 
 209    7:30   0.06   66.8    29    0.8    54     1.2   953.6    0.00 
 209    7:40   0.07   67.7    30    0.5    50     1.1   953.7    0.00 
 209    7:50   0.08   69.0    30    0.0    58     0.9   953.7    0.00 
 209    8:00   0.14   70.5    29    0.8    56     2.1   953.8    0.00 
 209    8:10   0.28   73.8    26    0.3    52     1.5   953.7    0.00 
 209    8:20   0.30   78.0    21    0.5   228     1.2   953.8    0.00 
 209    8:30   0.33   81.3    19    0.0     0     0.0   953.9    0.00 
 209    8:40   0.30   82.5    18    0.3   224     2.4   954.0    0.00 
 209    8:50   0.33   82.7    18    0.9   192     2.4   954.2    0.00 
 209    9:00   0.23   82.3    18    1.4   248     3.1   954.3    0.00 
 209    9:10   0.35   82.1    17    1.7   248     4.3   954.4    0.00 
 209    9:20   0.36   82.5    16    1.6   257     4.4   954.5    0.00 
 209    9:30   0.48   83.3    15    1.5   264     3.9   954.6    0.00 
 209    9:40   0.56   84.5    15    2.1   258     6.0   954.7    0.00 
 209    9:50   0.58   83.1    15    3.7   249     7.8   954.7    0.00 
 209   10:00   0.57   83.6    16    2.5   258     7.2   954.8    0.00 
 209   10:10   0.60   85.0    15    2.7   254     6.2   955.0    0.00 
 209   10:20   0.45   83.5    16    3.4   250     6.1   955.1    0.00 
 209   10:30   0.73   85.2    16    2.7   251     5.9   955.1    0.00 
 209   10:40   0.71   87.0    16    1.5   299     6.3   955.1    0.00 
 209   10:50   0.57   86.8    17    3.4   253     7.7   955.1    0.00 
 209   11:00   0.74   85.6    20    5.0   245     9.6   955.1    0.00 
 209   11:10   0.67   86.3    18    3.2   256     8.0   955.1    0.00 
 209   11:20   0.67   86.3    18    4.0   247     9.9   955.2    0.00 
 209   11:30   0.56   87.1    19    2.3   259     6.4   955.2    0.00 
 209   11:40   0.46   86.4    20    2.2   272     6.1   955.3    0.00 
 209   11:50   0.64   86.5    22    2.8   258     5.8   955.3    0.00 
 209   12:00   0.72   87.1    23    3.3   252     7.3   955.3    0.00 
 209   12:10   0.47   86.4    25    2.3   255     6.2   955.3    0.00 
 209   12:20   0.78   86.2    26    4.2   235     8.8   955.3    0.00 
 209   12:30   0.86   88.0    26    3.8   304     8.8   955.3    0.00 
 209   12:40   0.86   89.0    25    3.3   272     8.7   955.2    0.00 
 209   12:50   0.82   89.8    24    3.6   250     8.6   955.3    0.00 
 209   13:00   0.79   89.6    26    4.8   243    12.9   955.2    0.00 
 209   13:10   0.77   89.2    26    5.8   242    10.9   955.2    0.00 
 209   13:20   0.63   89.3    27    2.7   262     6.9   955.2    0.00 
 209   13:30   0.86   89.7    27    5.0   251    12.9   955.1    0.00 
 209   13:40   0.79   89.5    28    3.3   256     9.2   955.1    0.00 
 209   13:50   0.79   90.8    27    3.5   259     8.6   955.1    0.00 
 209   14:00   0.82   91.4    26    3.6   263    11.4   955.1    0.00 
 209   14:10   0.89   89.7    28    5.5   252    10.9   955.1    0.00 
 209   14:20   0.76   90.4    26    4.1   268    12.4   955.1    0.00 
 209   14:30   0.53   90.9    26    3.1   270    12.0   955.1    0.00 
 209   14:40   0.80   91.0    26    4.3   266     9.0   955.1    0.00 
 209   14:50   0.88   89.2    28    5.8   254    12.3   955.1    0.00 
 209   15:00   0.82   91.1    26    2.8   266    10.7   955.1    0.00 
 209   15:10   0.77   91.5    25    3.0   267    10.7   955.0    0.00 
 209   15:20   0.56   91.7    24    2.4   272     6.1   954.9    0.00 
 209   15:30   0.39   89.6    24    4.0   252     9.5   954.8    0.00 
 209   15:40   0.38   88.0    26    5.2   246    10.5   954.8    0.00 
 209   15:50   0.64   88.3    26    3.5   274     9.0   954.9    0.00 
 209   16:00   0.67   91.1    24    2.9   284     7.3   954.8    0.00 
 209   16:10   0.33   89.8    25    3.8   255     8.6   954.7    0.00 
 209   16:20   0.46   88.4    26    4.0   252    11.8   954.7    0.00 
 209   16:30   0.28   86.6    28    5.9   239    11.7   954.7    0.00 
 209   16:40   0.25   85.0    30    5.0   238     8.3   954.7    0.00 
 209   16:50   0.25   85.0    32    3.2   259     6.6   954.7    0.00 
 209   17:00   0.34   86.0    31    1.7   290     5.4   954.6    0.00 
 209   17:10   0.34   86.3    31    3.8   252     8.0   954.6    0.00 
 209   17:20   0.27   85.1    31    5.4   237     9.1   954.6    0.00 
 209   17:30   0.22   84.3    34    2.7   256     8.6   954.6    0.00 
 209   17:40   0.21   84.5    35    2.6   281     6.7   954.6    0.00 
 209   17:50   0.18   83.1    36    2.5   262     5.4   954.6    0.00 
 209   18:00   0.17   83.3    36    2.2   251     6.5   954.6    0.00 
 209   18:10   0.12   82.5    38    3.3   251     6.4   954.6    0.00 
 209   18:20   0.08   81.9    39    1.6   254     4.0   954.6    0.00 
 209   18:30   0.14   81.8    39    2.7   232     5.7   954.5    0.00 
 209   18:40   0.07   80.7    40    2.1   229     4.6   954.4    0.00 
 209   18:50   0.07   80.2    41    3.0   234     4.1   954.4    0.00 
 209   19:00   0.07   79.9    41    1.5   256     4.1   954.4    0.00 
 209   19:10   0.07   80.3    40    1.5   246     3.7   954.3    0.00 
 209   19:20   0.06   80.9    40    1.2   241     2.9   954.3    0.00 
 209   19:30   0.04   80.9    39    2.6   238     4.9   954.4    0.00 
 209   19:40   0.03   80.5    40    2.4   239     4.5   954.4    0.00 
 209   19:50   0.01   79.8    41    2.3   236     3.9   954.4    0.00 
 209   20:00   0.01   78.7    43    1.5   245     2.9   954.4    0.00 
 209   20:10   0.00   78.0    44    0.5   255     1.4   954.5    0.00 
 209   20:20   0.00   77.1    46    0.4   229     1.7   954.5    0.00 
 209   20:30   0.00   75.9    48    0.7   223     1.8   954.4    0.00 
 209   20:40   0.00   74.8    49    0.4   229     1.2   954.4    0.00 
 209   20:50   0.00   73.7    51    0.6    73     1.8   954.4    0.00 
 209   21:00   0.00   72.6    49    1.1    41     1.6   954.5    0.00 
 209   21:10   0.00   71.4    50    0.4    40     1.2   954.6    0.00 
 209   21:20   0.00   70.7    51    1.0    44     2.0   954.7    0.00 
 209   21:30   0.00   70.0    50    0.4    47     1.4   954.7    0.00 
 209   21:40   0.00   69.5    51    0.5    46     1.8   954.7    0.00 
 209   21:50   0.00   69.2    50    0.4    57     1.4   954.8    0.00 
 209   22:00   0.00   69.5    50    0.1   184     1.1   954.8    0.00 
 209   22:10   0.00   69.2    50    0.0   259     0.6   954.7    0.00 
 209   22:20   0.00   68.6    51    0.0   236     0.5   954.7    0.00 
 209   22:30   0.00   68.1    51    0.1    44     0.9   954.7    0.00 
 209   22:40   0.00   68.0    51    0.0   244     0.9   954.8    0.00 
 209   22:50   0.00   67.4    50    0.8   248     1.6   954.8    0.00 
 209   23:00   0.00   67.5    50    0.9    52     1.8   954.8    0.00 
 209   23:10   0.00   67.8    48    0.0    34     0.5   954.8    0.00 
 209   23:20   0.00   67.9    48    0.3   249     1.1   954.7    0.00 
 209   23:30   0.00   67.9    48    0.7    51     1.8   954.6    0.00 
 209   23:40   0.00   68.1    47    0.0    41     0.9   954.6    0.00 
 209   23:50   0.00   67.6    46    0.6    49     1.5   954.6    0.00 
 210    0:00   0.00   67.0    46    0.2    49     1.1   954.6    0.00 
 210    0:10   0.00   66.3    45    0.0    62     0.6   954.8    0.00 
 210    0:20   0.00   65.9    45    0.1    95     1.0   954.9    0.00 
 210    0:30   0.00   65.2    45    1.6    51     2.3   955.0    0.00 
 210    0:40   0.00   64.9    44    1.1    52     1.7   954.9    0.00 
 210    0:50   0.00   64.8    44    0.5   257     1.5   954.9    0.00 

Return to Hastings Natural History Reservation graphs page.


Western Regional Climate Center,wrcc@dri.edu